RH
94 94 95 97 97 97 96 98 98 98 98 97 96 92 91 92 89 79 80 88 88 83 76 68 69 72 75 76 78 79 82 81 79 83 82 82 84 82 74 70 67 66 68
96 95 96 95 92 96 93 93 96 97 96 95 93 88 80 80 79 75 74 82 89 86 83 75 68 68 70 73 74 78 82 83 82 82 82 81 83 84 81 75 71 69 68
91 90 94 96 94 95 95 95 93 92 91 86 85 77 71 70 68 66 64 70 81 91 88 76 74 74 74 70 71 74 79 82 83 84 85 84 84 85 84 80 76 72 70
92 94 95 94 94 97 97 98 94 89 79 77 73 71 67 69 66 62 62 61 68 70 83 86 82 80 79 74 70 71 76 79 83 84 84 85 86 85 81 82 79 77 74
86 93 96 95 93 96 98 97 98 95 94 95 91 84 82 78 69 58 60 60 61 68 74 76 86 86 83 82 72 69 72 77 80 82 84 85 83 83 80 80 81 79 77
91 94 95 95 97 99 98 98 96 97 96 96 92 84 77 70 67 67 62 57 61 62 69 75 80 79 88 84 80 74 74 77 79 80 83 82 82 81 80 80 83 81 75
87 96 97 96 95 94 95 95 97 98 99 99 99 98 97 90 85 80 78 72 71 65 69 68 72 79 80 87 85 83 81 75 78 80 81 81 80 80 78 77 80 82 80
81 88 96 96 93 94 98 99 97 99 97 99 98 98 98 93 95 89 85 78 74 68 70 67 73 77 83 86 90 88 87 80 76 74 79 82 80 76 77 79 76 79 79
92 87 94 97 98 98 97 97 98 98 98 99 98 94 99 97 95 86 93 88 82 86 77 75 80 84 88 92 94 96 98 96 82 77 76 73 79 78 76 76 76 76 79
94 93 93 97 98 98 97 97 96 98 97 97 99 99 94 92 94 93 92 93 93 91 91 91 91 91 94 97 97 99 96 93 84 76 72 72 71 69 68 70 74 74 79
95 95 94 96 97 98 98 98 98 99 98 97 98 99 98 98 96 98 91 88 89 94 94 93 92 92 91 95 95 94 93 88 80 80 70 73 72 71 72 75 78 77 76
95 93 95 96 94 95 98 98 98 99 98 98 98 98 97 98 99 98 96 88 90 86 93 94 94 90 87 88 92 93 92 90 88 85 80 76 76 77 78 78 78 77 77
93 92 94 98 98 97 96 98 99 98 98 99 99 97 95 91 94 89 93 92 97 97 95 94 86 88 90 93 93 96 98 95 90 86 80 79 80 81 83 87 87 88 84
94 92 94 96 98 99 99 98 98 96 97 99 98 96 94 91 93 93 95 97 98 95 98 91 90 94 95 97 99 99 97 96 91 87 85 86 86 86 85 83 82 83 83
93 93 95 96 96 97 98 99 99 97 97 96 97 97 96 94 95 95 95 96 98 98 97 90 94 98 99 98 97 95 96 94 87 82 79 81 84 84 84 82 82 80 81
98 97 97 96 93 92 93 96 99 98 99 98 98 98 97 97 98 98 99 99 99 98 99 98 99 98 96 95 96 91 90 92 85 77 73 81 81 78 76 77 77 79 79
96 96 95 97 97 95 95 95 95 94 98 97 98 97 99 98 99 98 97 97 97 98 99 100 99 98 95 94 87 86 88 90 92 81 77 77 78 79 79 79 80 80 79
92 92 90 90 91 93 96 94 95 94 95 96 96 96 96 91 96 96 96 96 95 94 97 97 96 96 92 84 84 85 91 88 94 84 73 65 64 63 69 79 82 83 84
92 90 88 88 87 88 87 90 93 92 94 92 91 92 93 92 96 96 96 95 95 91 95 95 93 91 92 90 91 92 89 92 89 79 70 67 63 68 72 70 74 77 82
91 90 87 88 88 86 84 81 85 89 90 88 88 88 86 86 88 89 85 87 84 91 91 92 93 94 95 92 94 95 92 93 92 77 75 72 75 74 76 77 77 81 84
91 86 81 85 89 89 86 86 80 76 78 82 82 81 84 84 81 78 83 88 88 91 93 93 93 95 94 93 94 96 96 89 85 85 90 89 85 88 89 79 80 81 83
79 77 78 83 83 78 80 73 72 72 71 72 75 80 80 79 74 71 70 70 74 87 94 96 97 96 94 96 95 96 88 85 92 87 92 89 92 88 85 85 78 78 80
85 84 82 84 87 84 72 68 69 75 78 76 75 79 75 72 77 78 73 72 71 67 67 86 94 94 96 92 78 84 86 95 95 87 94 93 92 93 87 84 82 82 80
87 91 87 86 89 79 74 68 68 77 79 76 74 72 80 81 76 78 81 85 85 82 79 74 87 87 73 76 82 84 92 93 91 91 94 95 90 95 93 93 85 82 85
85 87 86 86 88 89 74 72 72 74 73 73 68 72 77 79 68 67 85 90 91 85 67 65 70 70 67 65 69 86 97 98 90 87 85 98 96 95 85 91 95 82 82
80 84 79 80 76 87 67 73 78 80 87 84 80 73 65 73 69 67 88 92 91 88 88 88 86 84 79 70 66 80 90 98 98 97 96 99 97 100 97 99 96 93 95
Wind_Speed
6 5 6 6 6 5 7 6 6 5 6 6 6 6 6 6 6 3 3 11 14 14 14 15 15 15 16 15 16 15 14 14 13 12 12 12 13 12 12 11 11 9 8
5 5 6 7 8 8 8 7 7 7 7 6 7 7 8 6 6 6 4 5 13 13 14 15 16 16 17 17 16 15 14 14 14 13 12 13 11 13 13 13 13 12 11
8 9 7 8 9 8 9 6 6 5 4 5 7 6 7 8 6 6 5 4 5 12 13 16 16 16 17 18 18 17 15 13 14 14 13 14 12 12 16 15 15 14 14
8 7 7 8 8 8 7 6 6 6 7 6 6 6 6 6 7 7 5 5 5 5 9 15 16 17 17 18 19 19 18 16 15 15 15 15 14 14 15 16 16 16 16
8 9 6 6 8 7 7 7 6 5 5 4 4 5 4 4 5 5 6 6 6 6 5 10 15 16 16 17 19 20 20 18 16 16 16 17 17 16 16 17 17 17 18
6 6 6 7 6 5 6 6 7 6 5 6 6 4 4 5 5 5 6 6 6 7 6 7 5 7 15 17 18 20 19 17 16 17 18 17 17 16 16 18 17 18 18
5 6 6 8 7 8 8 9 6 6 6 4 2 4 5 5 6 5 5 7 7 8 6 7 5 5 5 14 16 17 17 18 18 17 17 16 16 16 17 18 18 18 20
8 7 6 6 7 5 5 6 8 4 5 6 4 2 2 3 4 6 5 6 9 7 7 8 6 6 6 5 8 15 15 16 17 14 16 16 14 16 16 16 17 18 20
6 8 8 6 6 5 7 8 8 8 5 3 6 4 2 5 1 2 5 5 8 5 7 7 7 6 6 6 5 5 9 12 17 15 15 14 14 16 16 19 20 20 20
6 7 7 7 6 5 6 7 8 6 4 5 2 4 2 4 4 4 2 4 5 6 6 5 6 6 5 4 4 7 9 10 14 17 18 16 17 17 19 20 20 21 20
6 6 6 6 6 5 7 7 6 6 5 4 4 3 4 4 4 7 9 5 2 4 4 4 5 4 5 4 4 5 10 11 13 17 18 17 19 20 21 20 22 22 21
4 5 5 6 8 7 7 7 8 6 6 5 3 4 4 4 4 5 7 10 10 7 4 4 4 4 4 4 4 7 9 11 12 11 13 15 16 17 18 19 20 20 20
3 6 3 5 4 4 5 6 8 8 6 5 7 6 5 7 5 6 7 8 6 4 4 5 5 5 4 4 4 5 3 4 7 9 11 13 15 15 16 17 19 20 21
5 4 5 5 5 4 4 5 4 4 4 3 4 4 4 5 5 6 7 5 5 6 3 4 1 4 1 2 3 4 3 5 7 9 10 12 13 13 15 18 20 20 20
3 3 2 3 3 4 3 3 4 5 4 4 6 5 6 6 5 6 7 7 8 5 5 3 3 5 4 4 6 3 4 7 6 7 9 10 11 13 15 17 19 20 21
1 4 5 5 4 5 4 4 3 3 3 4 5 7 8 6 6 5 5 4 5 5 3 1 3 3 5 5 4 5 4 5 7 11 13 12 13 15 16 17 18 19 20
4 3 5 5 5 4 4 4 3 3 4 4 2 7 1 0 4 3 3 2 3 2 2 2 2 3 1 5 4 4 3 4 4 11 13 14 15 17 18 19 19 19 19
5 5 6 7 7 7 7 7 5 5 6 7 7 5 6 5 6 5 4 6 7 4 3 1 2 3 3 3 3 4 3 3 4 8 14 17 18 19 19 19 18 18 18
8 6 6 7 8 7 8 7 6 6 7 7 8 10 8 5 6 5 7 3 5 4 3 2 2 3 1 2 3 3 5 5 4 11 16 16 19 18 19 21 20 20 20
8 8 8 8 8 8 7 7 6 6 6 7 7 11 6 5 7 7 5 5 4 4 3 2 2 2 2 3 3 4 6 3 7 8 11 13 17 19 22 22 22 19 20
6 6 6 8 6 6 4 4 5 3 5 5 6 12 8 10 14 10 4 5 5 3 3 2 2 2 2 3 4 3 4 6 6 5 4 6 8 7 8 14 16 19 21
4 5 6 6 5 3 7 8 6 4 4 6 8 7 6 8 8 11 11 11 7 2 2 2 2 2 3 3 2 4 7 9 6 3 5 9 6 10 9 8 18 22 21
4 5 4 4 4 4 9 10 10 4 5 5 5 5 5 4 6 5 8 9 9 9 6 1 1 2 3 3 9 8 8 7 7 8 7 8 5 9 8 9 20 22 21
3 3 3 3 4 5 10 9 9 6 5 5 5 5 5 4 5 5 5 4 4 4 4 3 3 4 6 7 7 7 8 8 7 7 5 8 6 7 7 7 19 16 15
2 2 2 4 5 4 8 9 7 5 5 5 5 4 5 3 7 9 4 4 3 3 5 8 10 13 13 13 11 7 4 6 7 7 6 4 3 7 9 8 4 10 14
2 3 3 4 6 4 5 8 7 4 5 3 4 4 3 3 9 10 5 5 6 5 5 5 5 6 8 7 12 7 6 7 7 6 0 4 7 4 5 2 3 3 5
Wind_Direction
216 200 205 195 193 191 201 198 199 206 214 213 225 227 233 240 250 243 240 220 226 230 228 230 235 239 240 241 246 251 248 248 253 253 251 254 250 241 253 255 260 265 271
212 204 198 202 203 193 199 197 200 204 217 218 225 219 232 234 231 233 222 239 228 233 237 234 238 243 248 249 250 252 250 246 247 250 244 245 251 240 240 249 253 254 257
210 216 210 202 204 199 201 197 204 195 210 215 228 218 224 229 226 230 220 218 228 232 236 240 243 242 246 251 253 254 250 247 244 243 239 239 242 245 238 238 244 247 248
217 213 205 205 204 195 190 197 197 215 213 212 223 232 223 218 221 225 222 221 223 231 233 238 241 242 243 247 251 253 255 249 244 242 239 239 240 238 243 239 244 245 246
224 212 206 208 207 195 187 193 200 197 205 205 220 231 226 223 233 242 237 242 229 227 225 238 237 238 238 240 248 252 255 257 253 249 243 234 237 241 242 242 240 246 249
249 219 213 210 198 202 200 193 203 199 211 216 220 229 218 213 217 212 225 236 241 232 223 229 235 242 239 242 243 251 255 258 261 255 251 243 237 241 240 242 239 241 249
266 248 237 217 201 202 207 201 203 204 215 193 184 243 253 238 240 233 223 233 238 243 228 227 228 231 239 235 241 245 252 258 262 263 258 247 243 244 242 245 248 242 244
244 244 240 230 211 187 209 209 199 192 222 182 172 118 242 291 256 236 223 231 239 244 243 241 227 226 230 228 231 232 238 253 265 270 272 268 260 259 267 267 263 254 252
246 240 224 226 213 193 211 212 209 192 203 196 214 151 144 220 348 273 237 234 245 237 245 243 235 233 234 235 220 238 263 265 276 278 280 283 283 281 275 273 270 267 267
239 241 237 216 214 208 214 212 211 198 183 183 203 223 218 150 193 287 269 268 242 246 248 251 240 233 214 210 224 244 243 252 276 284 286 288 294 294 288 286 287 285 281
245 242 226 210 208 188 223 232 227 208 205 185 201 150 219 220 212 242 274 266 280 260 245 236 228 217 203 221 228 245 253 243 266 276 294 299 304 298 295 300 302 303 301
265 269 250 233 217 204 200 219 229 226 209 197 171 183 195 201 193 217 250 260 254 247 230 217 218 227 224 208 234 242 263 291 310 320 316 305 303 315 319 313 305 302 301
265 267 257 245 231 230 225 220 210 216 205 221 206 217 213 240 250 248 254 263 263 243 247 227 216 227 213 204 232 237 235 309 324 330 321 315 322 322 318 312 308 308 305
247 274 275 246 232 237 229 225 222 199 181 207 230 225 243 241 241 247 246 257 261 249 230 255 335 246 245 72 65 28 33 30 359 349 338 330 323 317 313 309 306 305 303
252 278 327 279 178 82 28 245 229 216 200 204 221 222 237 234 234 237 247 237 244 248 237 237 199 23 67 78 62 37 42 15 346 340 336 322 319 318 315 309 304 303 303
105 110 76 39 37 54 38 34 3 275 210 222 220 228 238 232 231 228 216 221 217 238 212 207 76 46 35 35 45 30 23 321 328 339 335 324 313 311 306 302 301 299 298
1 50 79 81 54 46 19 59 64 22 321 306 313 258 61 132 113 63 45 50 68 332 195 79 62 61 78 43 5 359 358 337 333 333 333 329 328 321 312 309 303 300 309
23 60 80 76 69 58 48 48 46 56 77 68 33 29 77 75 28 72 79 77 53 22 35 301 5 12 48 28 348 346 342 329 329 324 330 323 317 311 313 311 310 307 310
39 39 61 67 68 55 61 50 52 53 59 65 74 56 24 32 92 30 44 51 59 49 38 28 326 356 310 8 342 348 335 337 330 320 316 312 314 315 319 314 313 310 303
39 43 48 60 57 54 49 65 52 58 71 71 75 90 50 38 57 77 59 44 44 47 30 15 319 327 341 354 358 341 337 334 323 315 310 309 324 325 317 319 313 304 300
49 43 58 57 47 48 52 60 69 89 103 109 99 78 75 74 69 67 61 38 43 41 27 3 340 329 309 350 351 333 302 314 315 280 304 321 311 298 292 301 299 302 301
62 66 60 61 58 84 74 93 88 87 89 78 76 75 73 65 59 61 58 47 48 55 23 18 17 325 302 300 297 318 327 329 335 301 317 301 295 296 299 301 296 303 304
106 90 83 78 65 41 66 89 90 83 82 84 93 98 86 66 61 55 42 39 28 21 23 45 319 296 309 308 327 318 311 296 292 295 294 296 289 287 287 291 294 303 313
121 128 115 97 76 54 58 68 80 74 67 64 73 83 94 60 31 49 40 25 10 358 354 3 352 295 311 326 315 307 304 304 295 286 292 287 299 281 287 292 292 312 320
141 150 138 108 91 50 65 68 75 73 67 54 48 68 101 65 13 5 39 13 11 351 343 357 3 341 326 321 317 332 305 310 306 308 295 279 291 306 303 286 290 321 333
172 150 145 153 155 140 93 95 95 100 85 65 52 45 41 27 7 5 33 20 360 325 352 359 343 337 320 315 326 331 318 309 307 302 316 319 305 325 307 271 304 309 322